• Join FlightAware (Why Join?)
  • Login
  • US Flag GB Flag 
05:56 EDT


 

Airport Tracker/Info


-or-


 

Live Flight TrackerFlight Track Log ✈ AWE3202 ✈ 08-May-2013 ✈ KJAX - KDCA

Flight Track Log - Related Links

Times and Time Zones

All times are in EDT time to prevent confusion due to time zone crossing. See the AWE3202 flight status page for this flight to view local times or setup timezone preferences in your user account.

Time Position Orientation Groundspeed Altitude Reporting Facility
EDT Latitude Longitude Course Direction KTS MPH feet Rate Location/Type
20:52 30.4992 -81.7136 328° Northwest 137 158 1,200  Level Jacksonville Center
20:53 30.5347 -81.7397 328° Northwest 194 223 2,900 2,460 Climbing Jacksonville Center
20:54 30.5894 -81.7656 338° Northwest 244 281 5,600 3,360 Climbing Jacksonville Center
20:55 30.6564 -81.7986 337° Northwest 259 298 9,400 2,880 Climbing Jacksonville Center
20:56 30.7467 -81.8436 337° Northwest 274 315 12,100 2,520 Climbing Jacksonville Center
20:57 30.8283 -81.8814 338° Northwest 289 333 15,000 2,760 Climbing Jacksonville Center
20:58 30.9142 -81.9217 334° Northwest 316 364 17,700 2,400 Climbing Jacksonville Center
20:59 31.0125 -81.9303 356° North 329 379 19,900 2,280 Climbing Jacksonville Center
21:00 31.1169 -81.9414 355° North 361 415 22,300 2,160 Climbing Jacksonville Center
21:01 31.2214 -81.9500 356° North 374 430 24,300 1,920 Climbing Jacksonville Center
21:02 31.3278 -81.9536 358° North 374 430 26,200 1,680 Climbing Jacksonville Center
21:03 31.4261 -81.9625 356° North 385 443 27,700 1,560 Climbing Jacksonville Center
21:04 31.5472 -81.9736 356° North 390 449 29,400 1,380 Climbing Jacksonville Center
21:05 31.6494 -81.9603 North 390 449 30,500 1,200 Climbing Jacksonville Center
21:06 31.7681 -81.8858 28° Northeast 407 468 31,900 1,200 Climbing Jacksonville Center
21:07 31.8739 -81.8186 28° Northeast 427 491 33,000 540 Climbing Jacksonville Center
21:08 31.9756 -81.7536 28° Northeast 447 514 33,000 60 Level Jacksonville Center
21:09 32.0981 -81.6736 29° Northeast 454 522 33,200 600 Climbing Jacksonville Center
21:10 32.2100 -81.6011 29° Northeast 457 526 34,200 900 Climbing Jacksonville Center
21:11 32.3117 -81.5381 28° Northeast 452 520 35,000 360 Climbing Jacksonville Center
21:12 32.4361 -81.4575 29° Northeast 458 527 35,000  Level Jacksonville Center
21:13 32.5458 -81.3867 29° Northeast 452 520 35,000  Level Jacksonville Center
21:14 32.6578 -81.3108 30° Northeast 452 520 35,000  Level Jacksonville Center
21:15 32.7569 -81.2400 31° Northeast 457 526 35,000  Level Jacksonville Center
21:16 32.8708 -81.1686 28° Northeast 457 526 35,000  Level Jacksonville Center
21:17 32.9825 -81.0947 29° Northeast 457 526 35,000  Level Jacksonville Center
21:18 33.1025 -81.0178 28° Northeast 457 526 35,000 360 Level Jacksonville Center
21:19 33.2119 -80.9436 30° Northeast 457 526 35,800 960 Climbing Jacksonville Center
21:20 33.3194 -80.8717 29° Northeast 457 526 37,000 600 Climbing Jacksonville Center
21:21 33.4267 -80.7994 29° Northeast 451 519 37,000  Level Jacksonville Center
21:22 33.5403 -80.7247 29° Northeast 451 519 37,000  Level Jacksonville Center
21:23 33.6517 -80.6494 29° Northeast 456 525 37,000  Level Jacksonville Center
21:24 33.7608 -80.5744 30° Northeast 456 525 37,000  Level Jacksonville Center
21:25 33.8742 -80.4989 29° Northeast 456 525 37,000  Level Jacksonville Center
21:26 33.9875 -80.4181 31° Northeast 456 525 37,000  Level Jacksonville Center
21:27 34.0964 -80.3422 30° Northeast 456 525 37,000  Level Jacksonville Center
21:28 34.2117 -80.2661 29° Northeast 456 525 37,000  Level Jacksonville Center
21:29 34.3208 -80.1897 30° Northeast 451 519 37,000  Level Jacksonville Center
21:30 34.4317 -80.1133 30° Northeast 451 519 37,000  Level Jacksonville Center
21:32 34.6319 -79.9711 30° Northeast 462 532 37,000  Level Washington Center
21:33 34.7392 -79.8961 30° Northeast 456 525 37,000  Level Washington Center
21:34 34.8503 -79.8211 29° Northeast 456 525 37,000  Level Washington Center
21:35 34.9594 -79.7431 30° Northeast 456 525 37,000  Level Washington Center
21:36 35.0706 -79.6675 29° Northeast 451 519 37,000  Level Washington Center
21:37 35.1775 -79.5842 32° Northeast 451 519 37,000  Level Washington Center
21:38 35.2731 -79.4769 42° Northeast 456 525 37,000  Level Washington Center
21:39 35.3703 -79.3694 42° Northeast 461 531 37,000  Level Washington Center
21:40 35.4547 -79.2714 43° Northeast 461 531 37,000  Level Washington Center
21:41 35.5500 -79.1611 43° Northeast 461 531 37,000 -180 Level Washington Center
21:42 35.6558 -79.0406 43° Northeast 461 531 36,700 -600 Descending Washington Center
21:43 35.7506 -78.9294 44° Northeast 461 531 35,900 -900 Descending Washington Center
21:44 35.8453 -78.8233 42° Northeast 461 531 35,000 -1,020 Descending Washington Center
21:45 35.9311 -78.7369 39° Northeast 456 525 33,900 -1,440 Descending Washington Center
21:46 36.0317 -78.6458 36° Northeast 444 511 32,100 -1,860 Descending Washington Center
21:47 36.1339 -78.5572 35° Northeast 444 511 30,300 -1,920 Descending Washington Center
21:48 36.2425 -78.4711 33° Northeast 449 517 28,400 -1,680 Descending Washington Center
21:49 36.3547 -78.4031 26° Northeast 449 517 27,000 -720 Descending Washington Center
21:50 36.4669 -78.3322 27° Northeast 449 517 27,000  Level Washington Center
21:51 36.5811 -78.2639 26° Northeast 449 517 27,000  Level Washington Center
21:52 36.7061 -78.1800 28° Northeast 454 522 27,000  Level Washington Center
21:53 36.8222 -78.1086 26° Northeast 459 528 27,000 -120 Level Washington Center
21:54 36.9322 -78.0369 28° Northeast 454 522 26,800 -900 Descending Washington Center
21:55 37.0486 -77.9625 27° Northeast 454 522 25,300 -960 Descending Washington Center
21:56 37.1583 -77.8931 27° Northeast 454 522 25,000 -180 Descending Washington Center
21:57 37.2725 -77.8181 28° Northeast 454 522 25,000 -540 Level Washington Center
21:58 37.3800 -77.7506 27° Northeast 449 517 24,000 -1,020 Descending Washington Center
21:59 37.4833 -77.6828 27° Northeast 435 501 23,000 -1,020 Descending Washington Center
22:00 37.5847 -77.6175 27° Northeast 414 476 22,000 -720 Descending Washington Center
22:01 37.6839 -77.5547 27° Northeast 404 465 21,600 -1,320 Descending Washington Center
22:02 37.7828 -77.4889 28° Northeast 404 465 19,400 -2,100 Descending Washington Center
22:03 37.8819 -77.4256 27° Northeast 397 457 17,400 -1,500 Descending Washington Center
22:04 37.9767 -77.3619 28° Northeast 392 451 16,500 -1,440 Descending Washington Center
22:05 38.0672 -77.3061 26° Northeast 381 438 14,600 -2,040 Descending Washington Center
22:06 38.1575 -77.2500 26° Northeast 367 422 12,400 -2,160 Descending Washington Center
22:07 38.2356 -77.1964 28° Northeast 356 410 10,300 -1,200 Descending Washington Center
22:08 38.3217 -77.1531 22° Northeast 345 397 10,000 -180 Descending Washington Center
22:09 38.4156 -77.1314 10° North 335 386 10,000 -240 Level Washington Center
22:10 38.4992 -77.1144 North 315 362 9,600 -540 Descending Washington Center
22:11 38.5767 -77.0975 10° North 293 337 9,000 -360 Descending Washington Center
22:12 38.6456 -77.0828 North 270 311 8,900 -480 Descending Washington Center
22:12 38.6667 -77.0667 31° Northeast 240 276 8,400 -1,440 Descending Potomac TRACON
22:13 38.7333 -77.0667 360° North 234 269 7,100 -1,200 Descending Potomac TRACON
22:14 38.8000 -77.0833 349° North 230 265 6,000 -540 Descending Potomac TRACON
22:15 38.8500 -77.1333 322° Northwest 212 244 6,000  Level Potomac TRACON
22:16 38.8833 -77.1833 311° West 208 239 6,000  Level Potomac TRACON
22:17 38.9333 -77.2333 322° Northwest 204 235 6,000 -480 Level Potomac TRACON
22:18 38.9667 -77.2833 311° West 205 236 5,100 -1,140 Descending Potomac TRACON
22:19 39.0167 -77.2500 27° Northeast 215 247 3,800 -1,200 Descending Potomac TRACON
22:20 38.9833 -77.2000 131° Southeast 187 215 3,000 -540 Descending Potomac TRACON
22:21 38.9667 -77.1500 113° Southeast 178 205 2,800 -540 Descending Potomac TRACON
22:22 38.9333 -77.1000 131° Southeast 170 196 1,900 -900 Descending Potomac TRACON
22:23 38.9000 -77.0667 142° Southeast 143 165 1,100 -900 Descending Potomac TRACON
22:25 38.8500 -77.0333 135° Southeast  Level FlightAware Approximate
22:32 38.8519 -77.0377 135° Southeast  Level Estimated